When you browse on this site, cookies collect data to enhance your experience and personalize the content and advertising you see.
Visit our Privacy Policy to learn more. By continuing to use the site, you agree to this use of cookies and data.
  • In Romania
  • List of Countries
  • For 7 days
  • Water Temperature
  • Satellite Maps
  • Weather Map
  • Weather Widgets
  • user-avatar
    Login

    Hourly Weather Azzate

    Today, 24 April, Wednesday

    Time Temperature Precipitation Wind Pressure Humidity
    00:00 +13°C° 1.9 mm 1 mps 731 mmHg 92%
    01:00 +13°C° 0 mm 1 mps 732 mmHg 93%
    02:00 +13°C° 1.6 mm 2 mps 732 mmHg 94%
    03:00 +13°C° 1.6 mm 2 mps 732 mmHg 95%
    04:00 +13°C° 1.6 mm 2 mps 732 mmHg 96%
    05:00 +14°C° 1.4 mm 2 mps 733 mmHg 96%
    06:00 +14°C° 1.4 mm 2 mps 733 mmHg 95%
    07:00 +14°C° 0 mm 2 mps 733 mmHg 96%
    08:00 +14°C° 1.2 mm 2 mps 733 mmHg 93%
    09:00 +15°C° 1.2 mm 2 mps 733 mmHg 89%
    10:00 +15°C° 1.2 mm 2 mps 733 mmHg 86%
    11:00 +15°C° 2.9 mm 2 mps 734 mmHg 85%
    12:00 +15°C° 2.9 mm 2 mps 734 mmHg 85%
    13:00 +15°C° 2.9 mm 2 mps 734 mmHg 85%
    14:00 +14°C° 3.8 mm 3 mps 734 mmHg 85%
    15:00 +14°C° 3.8 mm 3 mps 734 mmHg 86%
    16:00 +14°C° 3.8 mm 3 mps 734 mmHg 86%
    17:00 +14°C° 1.9 mm 3 mps 735 mmHg 85%
    18:00 +14°C° 1.9 mm 3 mps 735 mmHg 84%
    19:00 +15°C° 1.9 mm 2 mps 735 mmHg 82%
    20:00 +14°C° 0.8 mm 2 mps 736 mmHg 84%
    21:00 +14°C° 0.8 mm 1 mps 737 mmHg 85%
    22:00 +12°C° 0.8 mm 0 mps 738 mmHg 87%
    23:00 +12°C° 0.6 mm 0 mps 738 mmHg 86%

    Tomorrow, 25 April, Thursday

    Time Temperature Precipitation Wind Pressure Humidity
    00:00 +12°C° 0.6 mm 0 mps 739 mmHg 86%
    01:00 +12°C° 0.6 mm 0 mps 739 mmHg 86%
    02:00 +12°C° 0.2 mm 0 mps 739 mmHg 87%
    03:00 +11°C° 0.2 mm 0 mps 739 mmHg 88%
    04:00 +11°C° 0.2 mm 0 mps 739 mmHg 89%
    05:00 +11°C° 0 mm 0 mps 739 mmHg 88%
    06:00 +12°C° 0 mm 0 mps 739 mmHg 87%
    07:00 +12°C° 0 mm 0 mps 739 mmHg 87%
    08:00 +14°C° 0 mm 0 mps 739 mmHg 79%
    09:00 +16°C° 0 mm 1 mps 739 mmHg 71%
    10:00 +18°C° 0 mm 1 mps 739 mmHg 63%
    11:00 +19°C° 0 mm 1 mps 739 mmHg 58%
    12:00 +19°C° 0 mm 2 mps 739 mmHg 54%
    13:00 +19°C° 0 mm 2 mps 738 mmHg 49%
    14:00 +19°C° 0.2 mm 2 mps 738 mmHg 52%
    15:00 +19°C° 0.2 mm 2 mps 738 mmHg 55%
    16:00 +20°C° 0.2 mm 1 mps 738 mmHg 58%
    17:00 +19°C° 0.5 mm 1 mps 738 mmHg 64%
    18:00 +18°C° 0.5 mm 1 mps 738 mmHg 70%
    19:00 +16°C° 0.5 mm 1 mps 738 mmHg 75%
    20:00 +16°C° 0.8 mm 1 mps 738 mmHg 78%
    21:00 +16°C° 0.8 mm 1 mps 738 mmHg 80%
    22:00 +15°C° 0.8 mm 1 mps 738 mmHg 83%
    23:00 +15°C° 1.3 mm 1 mps 738 mmHg 86%

    Day after tomorrow, 26 April, Friday

    Time Temperature Precipitation Wind Pressure Humidity
    00:00 +15°C° 1.3 mm 2 mps 737 mmHg 88%
    01:00 +14°C° 1.3 mm 2 mps 737 mmHg 91%
    02:00 +14°C° 1.4 mm 2 mps 737 mmHg 91%
    03:00 +13°C° 1.4 mm 3 mps 737 mmHg 92%
    04:00 +13°C° 1.4 mm 3 mps 736 mmHg 92%
    05:00 +13°C° 2.4 mm 3 mps 736 mmHg 93%
    06:00 +13°C° 2.4 mm 4 mps 736 mmHg 93%
    07:00 +12°C° 2.4 mm 4 mps 736 mmHg 93%
    08:00 +13°C° 1.8 mm 4 mps 736 mmHg 90%
    09:00 +13°C° 1.8 mm 3 mps 736 mmHg 87%
    10:00 +14°C° 1.8 mm 3 mps 737 mmHg 84%
    11:00 +16°C° 2 mm 3 mps 737 mmHg 78%
    12:00 +17°C° 2 mm 2 mps 737 mmHg 71%
    13:00 +18°C° 2 mm 2 mps 737 mmHg 65%
    14:00 +16°C° 3.4 mm 3 mps 737 mmHg 68%
    15:00 +14°C° 3.4 mm 3 mps 737 mmHg 72%
    16:00 +12°C° 3.4 mm 4 mps 737 mmHg 75%
    17:00 +12°C° 0.5 mm 4 mps 737 mmHg 72%
    18:00 +11°C° 0.5 mm 4 mps 738 mmHg 69%
    19:00 +11°C° 0.5 mm 4 mps 738 mmHg 66%
    20:00 +11°C° 0 mm 3 mps 739 mmHg 67%
    21:00 +10°C° 0 mm 3 mps 739 mmHg 67%
    22:00 +10°C° 0 mm 3 mps 740 mmHg 68%
    23:00 +9°C° 0 mm 3 mps 740 mmHg 67%

    27 April, Saturday

    Time Temperature Precipitation Wind Pressure Humidity
    00:00 +9°C° 0 mm 3 mps 740 mmHg 66%
    01:00 +8°C° 0 mm 3 mps 740 mmHg 65%
    02:00 +8°C° 0 mm 3 mps 740 mmHg 64%
    03:00 +7°C° 0 mm 3 mps 740 mmHg 63%
    04:00 +7°C° 0 mm 2 mps 740 mmHg 62%
    05:00 +8°C° 0 mm 2 mps 740 mmHg 60%
    06:00 +8°C° 0 mm 2 mps 740 mmHg 57%
    07:00 +9°C° 0 mm 2 mps 740 mmHg 55%
    08:00 +13°C° 0 mm 1 mps 740 mmHg 49%
    09:00 +16°C° 0 mm 1 mps 740 mmHg 42%
    10:00 +17°C° 0 mm 0 mps 740 mmHg 36%
    11:00 +20°C° 0 mm 1 mps 739 mmHg 35%
    12:00 +20°C° 0 mm 2 mps 739 mmHg 33%
    13:00 +20°C° 0 mm 2 mps 738 mmHg 32%
    14:00 +20°C° 0 mm 2 mps 738 mmHg 33%
    15:00 +20°C° 0 mm 2 mps 737 mmHg 34%
    16:00 +20°C° 0 mm 2 mps 737 mmHg 35%
    17:00 +19°C° 0.2 mm 2 mps 737 mmHg 42%
    18:00 +18°C° 0.2 mm 2 mps 737 mmHg 49%
    19:00 +16°C° 0.2 mm 1 mps 737 mmHg 55%
    20:00 +15°C° 0.3 mm 1 mps 737 mmHg 60%
    21:00 +14°C° 0.3 mm 2 mps 738 mmHg 65%
    22:00 +12°C° 0.3 mm 2 mps 738 mmHg 70%
    23:00 +12°C° 0.1 mm 2 mps 738 mmHg 70%

    28 April, Sunday

    Time Temperature Precipitation Wind Pressure Humidity
    00:00 +10°C° 0.1 mm 2 mps 738 mmHg 70%
    01:00 +9°C° 0.1 mm 2 mps 738 mmHg 69%
    02:00 +9°C° 0 mm 2 mps 738 mmHg 68%
    03:00 +9°C° 0 mm 2 mps 738 mmHg 67%
    04:00 +8°C° 0 mm 3 mps 738 mmHg 65%
    05:00 +9°C° 0 mm 3 mps 738 mmHg 63%
    06:00 +9°C° 0 mm 2 mps 739 mmHg 61%
    07:00 +10°C° 0 mm 2 mps 739 mmHg 59%
    08:00 +13°C° 0 mm 2 mps 739 mmHg 50%
    09:00 +14°C° 0 mm 3 mps 739 mmHg 42%
    10:00 +17°C° 0 mm 3 mps 739 mmHg 33%
    11:00 +18°C° 0 mm 3 mps 739 mmHg 30%
    12:00 +19°C° 0 mm 4 mps 739 mmHg 27%
    13:00 +20°C° 0 mm 4 mps 739 mmHg 25%
    14:00 +20°C° 0 mm 4 mps 739 mmHg 25%
    15:00 +20°C° 0 mm 4 mps 739 mmHg 26%
    16:00 +20°C° 0 mm 5 mps 739 mmHg 26%
    17:00 +18°C° 0 mm 4 mps 739 mmHg 32%
    18:00 +17°C° 0 mm 3 mps 739 mmHg 37%
    19:00 +15°C° 0 mm 2 mps 740 mmHg 43%
    20:00 +14°C° 0 mm 2 mps 740 mmHg 48%
    21:00 +13°C° 0 mm 2 mps 741 mmHg 53%
    22:00 +12°C° 0 mm 2 mps 742 mmHg 58%
    23:00 +10°C° 0 mm 2 mps 742 mmHg 57%

    29 April, Monday

    Time Temperature Precipitation Wind Pressure Humidity
    00:00 +10°C° 0 mm 2 mps 742 mmHg 56%
    01:00 +9°C° 0 mm 2 mps 742 mmHg 55%
    02:00 +9°C° 0 mm 2 mps 742 mmHg 54%
    03:00 +9°C° 0 mm 2 mps 742 mmHg 53%
    04:00 +9°C° 0 mm 2 mps 742 mmHg 52%
    05:00 +9°C° 0 mm 2 mps 742 mmHg 52%
    06:00 +10°C° 0 mm 2 mps 741 mmHg 51%
    07:00 +10°C° 0 mm 2 mps 741 mmHg 51%
    08:00 +14°C° 0 mm 1 mps 741 mmHg 45%
    09:00 +16°C° 0 mm 1 mps 740 mmHg 39%
    10:00 +20°C° 0 mm 1 mps 740 mmHg 33%
    11:00 +21°C° 0 mm 1 mps 740 mmHg 30%
    12:00 +22°C° 0 mm 1 mps 739 mmHg 28%
    13:00 +23°C° 0 mm 1 mps 739 mmHg 26%
    14:00 +23°C° 0 mm 1 mps 739 mmHg 26%
    15:00 +23°C° 0 mm 2 mps 738 mmHg 26%
    16:00 +23°C° 0 mm 2 mps 738 mmHg 26%
    17:00 +20°C° 0 mm 2 mps 738 mmHg 31%
    18:00 +19°C° 0 mm 2 mps 738 mmHg 36%
    19:00 +18°C° 0 mm 2 mps 738 mmHg 40%
    20:00 +16°C° 0 mm 2 mps 739 mmHg 45%
    21:00 +15°C° 0 mm 2 mps 739 mmHg 49%
    22:00 +14°C° 0 mm 2 mps 740 mmHg 53%
    23:00 +13°C° 0 mm 2 mps 739 mmHg 54%
    Show more